AAL2962 KCLT-KDSM

Flight info

Callsign AAL2962
Flight time 1h 59m
Altitude 36000
Route JOJJO5 CUBIM Q50 IBATE YOCKY SCOTO AXC STRUK GUZIK DSM
Aircraft A319/M-SDE3FGHIRWY/LB1

Departure

Time 2026-04-26 01:11
Airport Charlotte Douglas International Airport (KCLT)

Arrival

Time 2026-04-26 03:11
Airport Des Moines International Airport (KDSM)
Time Latitude Longitude Altitude Speed Heading
2026-04-26 00:44 35.21830 -80.94477 733 ft 0 kts 278°
2026-04-26 01:03 35.21828 -80.94458 732 ft 4 kts 278°
2026-04-26 01:04 35.21824 -80.94426 731 ft 4 kts 269°
2026-04-26 01:04 35.21829 -80.94396 732 ft 4 kts 226°
2026-04-26 01:04 35.21843 -80.94387 730 ft 0 kts 176°
2026-04-26 01:05 35.21831 -80.94386 732 ft 6 kts 176°
2026-04-26 01:06 35.21756 -80.94372 732 ft 15 kts 155°
2026-04-26 01:06 35.21675 -80.94282 732 ft 16 kts 137°
2026-04-26 01:06 35.21588 -80.94242 732 ft 13 kts 216°
2026-04-26 01:06 35.21522 -80.94335 732 ft 16 kts 228°
2026-04-26 01:07 35.21450 -80.94434 731 ft 16 kts 228°
2026-04-26 01:07 35.21369 -80.94543 731 ft 18 kts 230°
2026-04-26 01:07 35.21311 -80.94677 730 ft 18 kts 252°
2026-04-26 01:07 35.21258 -80.94810 732 ft 18 kts 230°
2026-04-26 01:08 35.21175 -80.94919 731 ft 17 kts 230°
2026-04-26 01:08 35.21078 -80.94975 731 ft 17 kts 175°
2026-04-26 01:08 35.20952 -80.94964 723 ft 21 kts 176°
2026-04-26 01:08 35.20804 -80.94951 731 ft 20 kts 176°
2026-04-26 01:09 35.20674 -80.94940 733 ft 18 kts 176°
2026-04-26 01:09 35.20547 -80.94928 733 ft 18 kts 177°
2026-04-26 01:09 35.20422 -80.94919 733 ft 18 kts 175°
2026-04-26 01:09 35.20297 -80.94907 733 ft 18 kts 176°
2026-04-26 01:10 35.20175 -80.94899 733 ft 18 kts 179°
2026-04-26 01:10 35.20097 -80.94983 734 ft 16 kts 266°
2026-04-26 01:10 35.20119 -80.95090 737 ft 13 kts 330°
2026-04-26 01:10 35.20163 -80.95097 737 ft 4 kts 356°
2026-04-26 01:11 35.20413 -80.95118 739 ft 69 kts 355°
2026-04-26 01:11 35.21105 -80.95178 736 ft 130 kts 356°
2026-04-26 01:11 35.22150 -80.95267 1014 ft 151 kts 356°
2026-04-26 01:11 35.23148 -80.95546 1687 ft 149 kts 331°
2026-04-26 01:12 35.23894 -80.96428 2194 ft 152 kts 308°
2026-04-26 01:12 35.24565 -80.97443 2629 ft 158 kts 307°
2026-04-26 01:12 35.25302 -80.98562 2804 ft 180 kts 306°
2026-04-26 01:12 35.26135 -80.99832 3022 ft 203 kts 306°
2026-04-26 01:13 35.27067 -81.01257 3279 ft 226 kts 306°
2026-04-26 01:13 35.28103 -81.02839 3643 ft 250 kts 306°
2026-04-26 01:13 35.29218 -81.04538 4335 ft 260 kts 306°
2026-04-26 01:13 35.30365 -81.06281 5170 ft 265 kts 305°
2026-04-26 01:14 35.31134 -81.07447 5714 ft 268 kts 305°
2026-04-26 01:14 35.32311 -81.09238 6524 ft 272 kts 305°
2026-04-26 01:14 35.33506 -81.11058 7311 ft 276 kts 304°
2026-04-26 01:14 35.34716 -81.12901 8118 ft 279 kts 304°
2026-04-26 01:15 35.35940 -81.14764 8915 ft 283 kts 304°
2026-04-26 01:15 35.37177 -81.16650 9714 ft 285 kts 304°
2026-04-26 01:15 35.38433 -81.18565 10337 ft 294 kts 304°
2026-04-26 01:15 35.39759 -81.20599 10533 ft 317 kts 304°
2026-04-26 01:16 35.41173 -81.22774 10834 ft 333 kts 305°
2026-04-26 01:16 35.42629 -81.25005 11459 ft 337 kts 305°
2026-04-26 01:16 35.44102 -81.27256 12149 ft 340 kts 306°
2026-04-26 01:16 35.45549 -81.29558 12831 ft 341 kts 306°
2026-04-26 01:17 35.46944 -81.31921 13521 ft 343 kts 304°
2026-04-26 01:17 35.48311 -81.34325 14109 ft 345 kts 304°
2026-04-26 01:17 35.49678 -81.36761 14669 ft 348 kts 304°
2026-04-26 01:17 35.51059 -81.39209 15228 ft 350 kts 304°
2026-04-26 01:18 35.52457 -81.41670 15796 ft 353 kts 304°
2026-04-26 01:18 35.53869 -81.44151 16351 ft 356 kts 304°
2026-04-26 01:18 35.55284 -81.46659 16918 ft 358 kts 302°
2026-04-26 01:18 35.56486 -81.49346 17459 ft 361 kts 296°
2026-04-26 01:19 35.57650 -81.52087 18030 ft 363 kts 296°
2026-04-26 01:19 35.58824 -81.54853 18538 ft 366 kts 296°
2026-04-26 01:19 35.60009 -81.57636 19041 ft 369 kts 296°
2026-04-26 01:19 35.61201 -81.60443 19536 ft 372 kts 296°
2026-04-26 01:20 35.62407 -81.63264 20032 ft 374 kts 296°
2026-04-26 01:20 35.63632 -81.66101 20534 ft 377 kts 296°
2026-04-26 01:20 35.64870 -81.68948 21061 ft 378 kts 296°
2026-04-26 01:20 35.66096 -81.71769 21553 ft 381 kts 296°
2026-04-26 01:21 35.67339 -81.74652 22023 ft 383 kts 296°
2026-04-26 01:21 35.68589 -81.77553 22477 ft 385 kts 296°
2026-04-26 01:21 35.69868 -81.80517 22926 ft 388 kts 296°
2026-04-26 01:21 35.71118 -81.83412 23350 ft 390 kts 296°
2026-04-26 01:22 35.72391 -81.86369 23741 ft 392 kts 296°
2026-04-26 01:22 35.73680 -81.89336 24110 ft 394 kts 298°
2026-04-26 01:22 35.75292 -81.92085 24470 ft 399 kts 309°
2026-04-26 01:22 35.77316 -81.94454 24835 ft 404 kts 318°
2026-04-26 01:23 35.79549 -81.96574 25210 ft 406 kts 319°
2026-04-26 01:23 35.81796 -81.98697 25571 ft 408 kts 319°
2026-04-26 01:23 35.84083 -82.00858 25939 ft 410 kts 319°
2026-04-26 01:23 35.86319 -82.02975 26279 ft 411 kts 319°
2026-04-26 01:24 35.88619 -82.05160 26648 ft 413 kts 319°
2026-04-26 01:24 35.90865 -82.07298 27006 ft 414 kts 319°
2026-04-26 01:24 35.93152 -82.09482 27352 ft 416 kts 319°
2026-04-26 01:24 35.95446 -82.11672 27701 ft 418 kts 319°
2026-04-26 01:25 35.97748 -82.13871 28040 ft 419 kts 319°
2026-04-26 01:25 36.00061 -82.16076 28412 ft 421 kts 318°
2026-04-26 01:25 36.02384 -82.18287 28768 ft 422 kts 318°
2026-04-26 01:25 36.04708 -82.20503 29095 ft 423 kts 318°
2026-04-26 01:26 36.07044 -82.22736 29421 ft 425 kts 318°
2026-04-26 01:26 36.09380 -82.24969 29734 ft 426 kts 318°
2026-04-26 01:26 36.11731 -82.27211 30037 ft 427 kts 318°
2026-04-26 01:26 36.14087 -82.29460 30283 ft 429 kts 318°
2026-04-26 01:27 36.16449 -82.31727 30511 ft 431 kts 318°
2026-04-26 01:27 36.18823 -82.34011 30717 ft 433 kts 318°
2026-04-26 01:27 36.21206 -82.36305 30952 ft 435 kts 318°
2026-04-26 01:27 36.23592 -82.38600 31269 ft 434 kts 318°
2026-04-26 01:28 36.25980 -82.40895 31608 ft 434 kts 317°
2026-04-26 01:28 36.28366 -82.43181 31973 ft 433 kts 317°
2026-04-26 01:28 36.30747 -82.45466 32288 ft 433 kts 317°
2026-04-26 01:28 36.33128 -82.47758 32588 ft 433 kts 317°
2026-04-26 01:29 36.35503 -82.50055 32854 ft 434 kts 317°
2026-04-26 01:29 36.37886 -82.52359 33147 ft 434 kts 316°
2026-04-26 01:29 36.40266 -82.54665 33432 ft 435 kts 316°
2026-04-26 01:29 36.42652 -82.56972 33726 ft 435 kts 316°
2026-04-26 01:30 36.45009 -82.59249 34002 ft 435 kts 316°
2026-04-26 01:30 36.47398 -82.61561 34270 ft 435 kts 316°
2026-04-26 01:30 36.49790 -82.63878 34551 ft 435 kts 316°
2026-04-26 01:30 36.52171 -82.66190 34834 ft 435 kts 316°
2026-04-26 01:31 36.54581 -82.68528 35209 ft 432 kts 315°
2026-04-26 01:31 36.56947 -82.70826 35531 ft 430 kts 315°
2026-04-26 01:31 36.59273 -82.73083 35798 ft 430 kts 315°
2026-04-26 01:31 36.61633 -82.75374 35898 ft 430 kts 315°
2026-04-26 01:32 36.66331 -82.79947 35920 ft 428 kts 315°
2026-04-26 01:32 36.71010 -82.84512 35920 ft 427 kts 315°
2026-04-26 01:33 36.75687 -82.89069 35926 ft 427 kts 316°
2026-04-26 01:33 36.80395 -82.93597 35931 ft 427 kts 316°
2026-04-26 01:34 36.85110 -82.98095 35923 ft 426 kts 316°
2026-04-26 01:34 36.89086 -83.03372 35921 ft 412 kts 298°
2026-04-26 01:35 36.92087 -83.09451 35914 ft 411 kts 296°
2026-04-26 01:35 36.95084 -83.15530 35915 ft 411 kts 296°
2026-04-26 01:36 36.98101 -83.21605 35920 ft 412 kts 299°
2026-04-26 01:37 37.03796 -83.29810 35916 ft 418 kts 307°
2026-04-26 01:37 37.07723 -83.35179 35933 ft 418 kts 307°
2026-04-26 01:38 37.11632 -83.40575 35922 ft 418 kts 307°
2026-04-26 01:38 37.15545 -83.45976 35914 ft 419 kts 307°
2026-04-26 01:39 37.19454 -83.51387 35913 ft 419 kts 307°
2026-04-26 01:39 37.23364 -83.56805 35927 ft 419 kts 307°
2026-04-26 01:40 37.27251 -83.62185 35927 ft 419 kts 307°
2026-04-26 01:40 37.31151 -83.67605 35953 ft 418 kts 307°
2026-04-26 01:41 37.35048 -83.73041 35937 ft 418 kts 307°
2026-04-26 01:41 37.38935 -83.78478 35930 ft 418 kts 307°
2026-04-26 01:42 37.42831 -83.83917 35927 ft 418 kts 307°
2026-04-26 01:42 37.46736 -83.89342 35924 ft 418 kts 307°
2026-04-26 01:43 37.50624 -83.94792 35941 ft 418 kts 307°
2026-04-26 01:43 37.54501 -84.00247 35953 ft 418 kts 307°
2026-04-26 01:44 37.58375 -84.05706 35976 ft 418 kts 308°
2026-04-26 01:44 37.62249 -84.11167 35973 ft 418 kts 308°
2026-04-26 01:45 37.66051 -84.16703 35970 ft 415 kts 302°
2026-04-26 01:45 37.69450 -84.22535 35973 ft 415 kts 302°
2026-04-26 01:46 37.72875 -84.28409 35973 ft 416 kts 302°
2026-04-26 01:46 37.76302 -84.34294 35977 ft 416 kts 303°
2026-04-26 01:47 37.79726 -84.40180 35935 ft 415 kts 303°
2026-04-26 01:47 37.83144 -84.46071 35956 ft 415 kts 303°
2026-04-26 01:48 37.86558 -84.51971 35945 ft 416 kts 303°
2026-04-26 01:48 37.89974 -84.57884 35931 ft 416 kts 303°
2026-04-26 01:49 37.93395 -84.63809 35935 ft 417 kts 303°
2026-04-26 01:49 37.96808 -84.69743 35932 ft 417 kts 303°
2026-04-26 01:50 38.00222 -84.75679 35962 ft 416 kts 303°
2026-04-26 01:50 38.03626 -84.81614 35951 ft 416 kts 303°
2026-04-26 01:51 38.07029 -84.87552 35951 ft 416 kts 303°
2026-04-26 01:51 38.10428 -84.93495 35957 ft 416 kts 303°
2026-04-26 01:52 38.13809 -84.99416 35952 ft 417 kts 303°
2026-04-26 01:52 38.17213 -85.05391 35944 ft 418 kts 303°
2026-04-26 01:53 38.20618 -85.11377 35938 ft 418 kts 303°
2026-04-26 01:53 38.24017 -85.17368 35936 ft 418 kts 303°
2026-04-26 01:54 38.27410 -85.23366 35932 ft 418 kts 303°
2026-04-26 01:54 38.30811 -85.29367 35926 ft 418 kts 303°
2026-04-26 01:55 38.34206 -85.35374 35934 ft 418 kts 303°
2026-04-26 01:55 38.37588 -85.41395 35935 ft 418 kts 303°
2026-04-26 01:56 38.40969 -85.47411 35938 ft 418 kts 303°
2026-04-26 01:56 38.44352 -85.53429 35941 ft 417 kts 303°
2026-04-26 01:57 38.47728 -85.59456 35947 ft 417 kts 303°
2026-04-26 01:57 38.51075 -85.65447 35947 ft 417 kts 303°
2026-04-26 01:58 38.54443 -85.71479 35947 ft 417 kts 303°
2026-04-26 01:58 38.57801 -85.77517 35949 ft 417 kts 303°
2026-04-26 01:59 38.61173 -85.83558 35940 ft 418 kts 303°
2026-04-26 01:59 38.64546 -85.89625 35934 ft 419 kts 303°
2026-04-26 02:00 38.67912 -85.95711 35931 ft 419 kts 303°
2026-04-26 02:00 38.71282 -86.01804 35933 ft 419 kts 303°
2026-04-26 02:01 38.74648 -86.07909 35934 ft 419 kts 303°
2026-04-26 02:01 38.78015 -86.14015 35933 ft 420 kts 303°
2026-04-26 02:02 38.81378 -86.20129 35936 ft 420 kts 303°
2026-04-26 02:02 38.84741 -86.26253 35979 ft 420 kts 303°
2026-04-26 02:03 38.88080 -86.32357 35980 ft 421 kts 303°
2026-04-26 02:03 38.91444 -86.38497 35980 ft 421 kts 303°
2026-04-26 02:04 38.94808 -86.44655 35976 ft 421 kts 303°
2026-04-26 02:04 38.98170 -86.50821 35971 ft 421 kts 303°
2026-04-26 02:05 39.01523 -86.56993 35975 ft 421 kts 303°
2026-04-26 02:05 39.04311 -86.62128 35981 ft 421 kts 303°
2026-04-26 02:06 39.07662 -86.68319 35995 ft 421 kts 303°
2026-04-26 02:06 39.11011 -86.74516 35982 ft 422 kts 303°
2026-04-26 02:07 39.14365 -86.80726 35978 ft 422 kts 303°
2026-04-26 02:07 39.17399 -86.87173 35967 ft 420 kts 291°
2026-04-26 02:08 39.19463 -86.94211 35963 ft 420 kts 289°
2026-04-26 02:08 39.21538 -87.01247 35957 ft 420 kts 290°
2026-04-26 02:09 39.23616 -87.08282 35959 ft 420 kts 289°
2026-04-26 02:09 39.25675 -87.15320 35961 ft 420 kts 289°
2026-04-26 02:10 39.27725 -87.22370 35964 ft 419 kts 289°
2026-04-26 02:10 39.29769 -87.29422 35963 ft 419 kts 289°
2026-04-26 02:11 39.31811 -87.36475 35965 ft 419 kts 289°
2026-04-26 02:11 39.33850 -87.43532 35972 ft 419 kts 289°
2026-04-26 02:12 39.35886 -87.50589 35966 ft 419 kts 289°
2026-04-26 02:12 39.37914 -87.57657 35990 ft 420 kts 289°
2026-04-26 02:13 39.39941 -87.64732 35978 ft 420 kts 289°
2026-04-26 02:13 39.41964 -87.71805 35984 ft 420 kts 289°
2026-04-26 02:14 39.43979 -87.78889 35988 ft 419 kts 289°
2026-04-26 02:14 39.45979 -87.85916 35989 ft 419 kts 289°
2026-04-26 02:15 39.47985 -87.92984 35997 ft 418 kts 289°
2026-04-26 02:15 39.49986 -88.00055 35994 ft 418 kts 289°
2026-04-26 02:16 39.51984 -88.07124 35985 ft 418 kts 289°
2026-04-26 02:16 39.53970 -88.14199 36000 ft 418 kts 289°
2026-04-26 02:17 39.55951 -88.21271 36004 ft 417 kts 289°
2026-04-26 02:17 39.57928 -88.28335 36013 ft 417 kts 289°
2026-04-26 02:18 39.59901 -88.35403 36012 ft 417 kts 289°
2026-04-26 02:18 39.61870 -88.42481 36002 ft 417 kts 289°
2026-04-26 02:19 39.63828 -88.49556 36001 ft 417 kts 289°
2026-04-26 02:19 39.65782 -88.56628 35997 ft 416 kts 289°
2026-04-26 02:20 39.67731 -88.63696 36020 ft 416 kts 289°
2026-04-26 02:20 39.69682 -88.70760 36021 ft 416 kts 289°
2026-04-26 02:21 39.71621 -88.77827 36024 ft 415 kts 289°
2026-04-26 02:21 39.73551 -88.84895 36026 ft 415 kts 289°
2026-04-26 02:22 39.75879 -88.91714 36032 ft 415 kts 294°
2026-04-26 02:22 39.78292 -88.98576 36033 ft 415 kts 294°
2026-04-26 02:23 39.80677 -89.05397 36042 ft 414 kts 293°
2026-04-26 02:23 39.83055 -89.12223 36012 ft 414 kts 293°
2026-04-26 02:24 39.85411 -89.19006 36001 ft 414 kts 293°
2026-04-26 02:24 39.87780 -89.25837 36009 ft 414 kts 293°
2026-04-26 02:25 39.90146 -89.32671 36012 ft 413 kts 293°
2026-04-26 02:25 39.92507 -89.39493 36011 ft 413 kts 293°
2026-04-26 02:26 39.94860 -89.46308 36018 ft 413 kts 293°
2026-04-26 02:26 39.97201 -89.53131 36006 ft 412 kts 293°
2026-04-26 02:27 39.99537 -89.59956 36003 ft 412 kts 293°
2026-04-26 02:27 40.01874 -89.66787 36005 ft 412 kts 293°
2026-04-26 02:28 40.04208 -89.73615 36012 ft 412 kts 293°
2026-04-26 02:28 40.06536 -89.80448 36006 ft 412 kts 293°
2026-04-26 02:29 40.08858 -89.87292 35997 ft 412 kts 293°
2026-04-26 02:29 40.11176 -89.94135 35995 ft 412 kts 293°
2026-04-26 02:30 40.13495 -90.00984 35997 ft 412 kts 293°
2026-04-26 02:30 40.15799 -90.07821 36007 ft 410 kts 293°
2026-04-26 02:31 40.18094 -90.14643 36011 ft 409 kts 292°
2026-04-26 02:31 40.20380 -90.21461 36001 ft 409 kts 292°
2026-04-26 02:32 40.22659 -90.28270 36003 ft 408 kts 292°
2026-04-26 02:32 40.24953 -90.35068 36000 ft 408 kts 293°
2026-04-26 02:33 40.27306 -90.41833 36024 ft 408 kts 293°
2026-04-26 02:33 40.29665 -90.48575 36030 ft 407 kts 293°
2026-04-26 02:34 40.31994 -90.55313 36034 ft 406 kts 293°
2026-04-26 02:34 40.34301 -90.62058 36035 ft 405 kts 293°
2026-04-26 02:35 40.36607 -90.68794 36037 ft 405 kts 293°
2026-04-26 02:35 40.38916 -90.75529 36038 ft 405 kts 293°
2026-04-26 02:36 40.41215 -90.82256 36033 ft 404 kts 293°
2026-04-26 02:36 40.43506 -90.88981 36030 ft 403 kts 293°
2026-04-26 02:37 40.45786 -90.95697 36002 ft 403 kts 292°
2026-04-26 02:37 40.48056 -91.02415 36015 ft 402 kts 292°
2026-04-26 02:38 40.50333 -91.09132 36005 ft 403 kts 292°
2026-04-26 02:38 40.52605 -91.15859 35994 ft 403 kts 292°
2026-04-26 02:39 40.54870 -91.22587 35999 ft 402 kts 292°
2026-04-26 02:39 40.57125 -91.29315 36003 ft 402 kts 292°
2026-04-26 02:40 40.59373 -91.36049 36002 ft 402 kts 292°
2026-04-26 02:40 40.61622 -91.42776 36002 ft 402 kts 292°
2026-04-26 02:41 40.63862 -91.49511 36000 ft 401 kts 292°
2026-04-26 02:41 40.66085 -91.56193 36000 ft 401 kts 292°
2026-04-26 02:42 40.68317 -91.62913 35998 ft 400 kts 292°
2026-04-26 02:42 40.70544 -91.69627 36002 ft 399 kts 292°
2026-04-26 02:43 40.73865 -91.79691 35996 ft 399 kts 292°
2026-04-26 02:43 40.76072 -91.86402 35992 ft 399 kts 292°
2026-04-26 02:44 40.78272 -91.93116 35991 ft 398 kts 291°
2026-04-26 02:44 40.80463 -91.99821 35994 ft 398 kts 291°
2026-04-26 02:45 40.82850 -92.06416 35314 ft 401 kts 295°
2026-04-26 02:45 40.84169 -92.09708 34063 ft 409 kts 296°
2026-04-26 02:45 40.85536 -92.13031 32844 ft 411 kts 296°
2026-04-26 02:46 40.86873 -92.16283 32540 ft 393 kts 296°
2026-04-26 02:46 40.88139 -92.19406 32139 ft 379 kts 295°
2026-04-26 02:46 40.89349 -92.22443 31718 ft 367 kts 295°
2026-04-26 02:46 40.90514 -92.25417 31106 ft 363 kts 295°
2026-04-26 02:47 40.91661 -92.28376 30531 ft 361 kts 294°
2026-04-26 02:47 40.92799 -92.31323 29958 ft 358 kts 294°
2026-04-26 02:47 40.93930 -92.34243 29279 ft 355 kts 294°
2026-04-26 02:47 40.95056 -92.37137 29050 ft 354 kts 294°
2026-04-26 02:48 40.96186 -92.40033 28945 ft 354 kts 294°
2026-04-26 02:48 40.97317 -92.42933 28705 ft 355 kts 294°
2026-04-26 02:48 40.98444 -92.45829 28297 ft 353 kts 294°
2026-04-26 02:48 40.99567 -92.48720 27889 ft 352 kts 294°
2026-04-26 02:49 41.00684 -92.51595 27477 ft 351 kts 294°
2026-04-26 02:49 41.01796 -92.54466 27075 ft 349 kts 294°
2026-04-26 02:49 41.02529 -92.56360 26821 ft 349 kts 294°
2026-04-26 02:49 41.03990 -92.60136 26290 ft 347 kts 294°
2026-04-26 02:50 41.05089 -92.62974 25913 ft 346 kts 294°
2026-04-26 02:50 41.06186 -92.65811 25533 ft 345 kts 294°
2026-04-26 02:50 41.07275 -92.68637 25166 ft 344 kts 294°
2026-04-26 02:50 41.08359 -92.71448 24794 ft 342 kts 294°
2026-04-26 02:51 41.09438 -92.74247 24437 ft 340 kts 294°
2026-04-26 02:51 41.10512 -92.77035 24080 ft 340 kts 293°
2026-04-26 02:51 41.11236 -92.78922 23825 ft 339 kts 293°
2026-04-26 02:51 41.12303 -92.81708 23440 ft 339 kts 293°
2026-04-26 02:52 41.13367 -92.84488 23034 ft 338 kts 293°
2026-04-26 02:52 41.14430 -92.87266 22665 ft 337 kts 293°
2026-04-26 02:52 41.15490 -92.90036 22286 ft 336 kts 293°
2026-04-26 02:52 41.16548 -92.92801 21894 ft 336 kts 293°
2026-04-26 02:53 41.17603 -92.95562 21506 ft 335 kts 293°
2026-04-26 02:53 41.18653 -92.98317 21114 ft 334 kts 293°
2026-04-26 02:53 41.19685 -93.01028 20713 ft 333 kts 293°
2026-04-26 02:53 41.20730 -93.03775 20318 ft 333 kts 293°
2026-04-26 02:54 41.21772 -93.06510 19921 ft 332 kts 294°
2026-04-26 02:54 41.22812 -93.09234 19504 ft 330 kts 294°
2026-04-26 02:54 41.23846 -93.11944 19099 ft 328 kts 294°
2026-04-26 02:54 41.24874 -93.14651 18680 ft 327 kts 294°
2026-04-26 02:55 41.25897 -93.17344 18282 ft 326 kts 294°
2026-04-26 02:55 41.26915 -93.20024 17880 ft 324 kts 294°
2026-04-26 02:55 41.27925 -93.22688 17467 ft 321 kts 294°
2026-04-26 02:55 41.28925 -93.25336 17068 ft 320 kts 294°
2026-04-26 02:56 41.29919 -93.27975 16669 ft 318 kts 293°
2026-04-26 02:56 41.30907 -93.30599 16261 ft 317 kts 293°
2026-04-26 02:56 41.31896 -93.33218 15837 ft 316 kts 293°
2026-04-26 02:56 41.32883 -93.35829 15448 ft 315 kts 292°
2026-04-26 02:57 41.33866 -93.38433 15046 ft 314 kts 292°
2026-04-26 02:57 41.34845 -93.41035 14642 ft 314 kts 292°
2026-04-26 02:57 41.35819 -93.43629 14244 ft 314 kts 292°
2026-04-26 02:57 41.36793 -93.46229 13836 ft 313 kts 292°
2026-04-26 02:58 41.37766 -93.48827 13401 ft 313 kts 292°
2026-04-26 02:58 41.38734 -93.51412 12984 ft 311 kts 292°
2026-04-26 02:58 41.39698 -93.53985 12588 ft 310 kts 292°
2026-04-26 02:58 41.40654 -93.56543 12190 ft 308 kts 292°
2026-04-26 02:59 41.41607 -93.59094 11796 ft 307 kts 292°
2026-04-26 02:59 41.42554 -93.61633 11408 ft 305 kts 292°
2026-04-26 02:59 41.43644 -93.64024 11020 ft 308 kts 304°
2026-04-26 02:59 41.45123 -93.66096 10609 ft 311 kts 317°
2026-04-26 03:00 41.46875 -93.67800 10263 ft 311 kts 322°
2026-04-26 03:00 41.48619 -93.69438 10075 ft 304 kts 321°
2026-04-26 03:00 41.50328 -93.71056 10010 ft 301 kts 321°
2026-04-26 03:00 41.52033 -93.72677 9798 ft 302 kts 321°
2026-04-26 03:01 41.53766 -93.74332 9285 ft 305 kts 321°
2026-04-26 03:01 41.55482 -93.75967 8957 ft 301 kts 322°
2026-04-26 03:01 41.57173 -93.77580 8405 ft 298 kts 322°
2026-04-26 03:01 41.58853 -93.79184 7837 ft 296 kts 322°
2026-04-26 03:02 41.60529 -93.80783 7186 ft 297 kts 322°
2026-04-26 03:02 41.62226 -93.82400 6409 ft 303 kts 323°
2026-04-26 03:02 41.63946 -93.84037 5872 ft 299 kts 323°
2026-04-26 03:02 41.65592 -93.85606 5694 ft 282 kts 324°
2026-04-26 03:03 41.67138 -93.87082 5576 ft 264 kts 324°
2026-04-26 03:03 41.68584 -93.88464 5462 ft 246 kts 324°
2026-04-26 03:03 41.69957 -93.89635 5339 ft 227 kts 341°
2026-04-26 03:03 41.71467 -93.89724 5125 ft 215 kts 25°
2026-04-26 03:04 41.72610 -93.88582 4924 ft 202 kts 63°
2026-04-26 03:04 41.72997 -93.86865 4736 ft 189 kts 97°
2026-04-26 03:04 41.72655 -93.85327 4581 ft 162 kts 125°
2026-04-26 03:04 41.71861 -93.84437 4376 ft 145 kts 166°
2026-04-26 03:05 41.70904 -93.84286 4301 ft 135 kts 162°
2026-04-26 03:05 41.70025 -93.83881 4181 ft 133 kts 159°
2026-04-26 03:05 41.69143 -93.83504 4048 ft 133 kts 159°
2026-04-26 03:05 41.68261 -93.83128 3923 ft 133 kts 158°
2026-04-26 03:06 41.67382 -93.82753 3794 ft 133 kts 159°
2026-04-26 03:06 41.66505 -93.82379 3671 ft 132 kts 159°
2026-04-26 03:06 41.65629 -93.82006 3543 ft 132 kts 158°
2026-04-26 03:06 41.64786 -93.81542 3427 ft 131 kts 148°
2026-04-26 03:07 41.64031 -93.80862 3303 ft 131 kts 141°
2026-04-26 03:07 41.63338 -93.80069 3175 ft 131 kts 136°
2026-04-26 03:07 41.62683 -93.79223 3109 ft 131 kts 134°
2026-04-26 03:07 41.62045 -93.78346 3008 ft 131 kts 132°
2026-04-26 03:08 41.61421 -93.77461 2872 ft 131 kts 131°
2026-04-26 03:08 41.60812 -93.76583 2718 ft 130 kts 131°
2026-04-26 03:08 41.60201 -93.75696 2558 ft 130 kts 130°
2026-04-26 03:08 41.59590 -93.74805 2419 ft 129 kts 130°
2026-04-26 03:09 41.58984 -93.73918 2247 ft 129 kts 129°
2026-04-26 03:09 41.58384 -93.73030 2107 ft 129 kts 129°
2026-04-26 03:09 41.57795 -93.72126 1970 ft 129 kts 129°
2026-04-26 03:09 41.57179 -93.71249 1753 ft 131 kts 133°
2026-04-26 03:10 41.56548 -93.70354 1498 ft 132 kts 131°
2026-04-26 03:10 41.55941 -93.69474 1381 ft 128 kts 130°
2026-04-26 03:10 41.55342 -93.68572 1189 ft 130 kts 134°
2026-04-26 03:10 41.54726 -93.67681 1043 ft 130 kts 131°
2026-04-26 03:11 41.54131 -93.66812 926 ft 116 kts 131°
2026-04-26 03:11 41.53665 -93.66135 910 ft 82 kts 133°
2026-04-26 03:11 41.53377 -93.65718 914 ft 42 kts 132°
2026-04-26 03:11 41.53271 -93.65563 914 ft 14 kts 132°
2026-04-26 03:12 41.53233 -93.65429 911 ft 18 kts 68°
2026-04-26 03:12 41.53241 -93.65285 909 ft 19 kts 130°
2026-04-26 03:12 41.53152 -93.65166 907 ft 10 kts 130°
2026-04-26 03:12 41.53139 -93.65074 906 ft 11 kts 86°
2026-04-26 03:13 41.53108 -93.64980 906 ft 11 kts 89°
2026-04-26 03:13 41.53150 -93.64946 911 ft 5 kts 339°
2026-04-26 03:13 41.53176 -93.64974 912 ft 4 kts 318°
2026-04-26 03:13 41.53184 -93.64978 916 ft 0 kts 337°